SCP
1 1 0 0 0 1 1 1 1 1 1 0 0 0 0 0 0 0 0 0 0 0 1 2 2 3 2 2 2 1 0 0 0 0 0 0 0 0 0 0 0 0 0
2 1 1 1 1 1 1 1 1 1 0 0 0 0 0 0 0 0 0 0 0 1 1 1 3 3 3 2 2 1 0 0 0 0 0 0 0 0 0 0 0 0 0
1 1 0 0 1 2 1 1 1 1 1 0 0 0 0 0 0 0 0 0 0 1 1 2 3 4 4 3 2 1 0 0 0 0 0 0 0 0 0 0 0 0 0
1 1 1 1 1 2 2 1 1 1 1 0 0 0 0 0 0 0 0 0 0 0 1 1 2 3 4 4 3 2 0 0 0 0 0 0 0 0 0 0 0 0 0
0 1 2 2 2 2 2 2 1 1 0 0 0 0 0 0 0 0 0 0 0 0 0 1 1 1 2 3 4 2 0 0 0 0 0 0 0 0 0 0 0 0 0
0 1 2 2 2 2 2 2 1 0 1 0 0 0 0 0 0 0 0 0 0 0 0 0 1 1 1 2 3 3 1 0 0 0 0 0 0 0 0 0 0 0 0
0 0 1 2 2 2 0 0 0 0 0 0 0 0 0 0 0 0 0 0 0 0 0 0 1 1 1 1 1 2 2 0 0 0 0 0 0 0 0 0 0 0 0
0 0 1 1 1 0 0 0 0 0 0 0 0 0 0 0 0 0 0 0 0 0 0 0 0 0 0 1 1 0 1 1 0 0 0 0 0 0 0 0 0 0 0
0 0 0 0 0 0 0 0 0 0 0 0 0 0 0 0 0 0 0 0 0 0 0 0 0 0 0 0 0 0 0 0 0 0 0 0 0 0 0 0 0 0 0
0 0 0 0 0 0 0 0 0 0 0 0 0 0 0 0 0 0 0 0 0 0 0 0 0 0 0 0 0 0 0 0 0 0 0 0 0 0 0 0 0 0 0
0 0 0 0 0 0 0 0 0 0 0 0 0 0 0 0 0 0 0 0 0 0 0 0 0 0 0 0 0 0 0 0 0 0 0 0 0 0 0 0 0 0 0
0 0 0 0 0 0 0 0 0 0 0 -0 0 0 0 0 0 0 0 0 0 0 0 0 0 0 0 0 0 0 0 0 0 0 0 0 0 0 0 0 0 0 0
0 0 0 0 0 0 0 0 0 0 -0 0 0 0 0 0 0 0 0 0 0 0 0 0 0 0 0 0 0 0 0 0 0 0 0 0 0 0 0 0 0 0 0
0 0 0 0 0 0 0 -0 -0 0 -0 -0 0 0 0 0 0 0 0 0 0 0 0 0 0 0 0 0 0 0 0 0 0 0 0 0 0 0 0 0 0 0 0
0 0 0 0 0 0 0 0 -0 0 0 0 0 0 0 0 0 0 0 0 0 0 0 0 0 0 0 0 0 0 0 0 0 0 0 0 0 0 0 0 0 0 0
0 0 0 0 0 0 0 0 0 0 0 0 0 0 0 0 0 0 0 0 0 0 0 0 0 0 0 0 0 0 0 0 0 0 0 0 0 0 0 0 0 0 0
0 0 0 0 0 0 0 0 0 0 0 0 0 0 0 0 0 0 0 0 0 0 0 0 0 0 0 0 0 0 0 0 0 0 0 0 0 0 0 0 0 0 0
0 0 0 0 0 0 0 0 0 0 0 0 0 0 0 0 0 0 0 0 0 0 0 0 0 0 0 0 0 0 0 0 0 0 0 0 0 0 0 0 0 0 0
0 0 0 0 0 0 0 0 0 0 0 0 0 0 0 0 0 0 0 0 0 0 0 0 0 0 0 0 0 0 0 0 0 0 0 0 0 0 0 0 0 0 0
0 0 0 0 0 0 0 0 0 0 0 0 0 0 0 0 0 0 0 0 0 0 0 0 0 0 0 0 0 0 0 0 0 0 0 0 0 0 0 0 0 0 0
0 0 0 0 0 0 0 0 0 0 0 0 0 0 0 0 0 0 0 0 0 0 0 0 0 0 0 0 0 0 0 0 0 0 0 0 0 0 0 0 0 0 -0
0 0 0 0 0 0 0 0 0 0 0 0 0 0 0 0 0 0 0 0 0 0 0 0 0 0 0 0 0 0 0 0 0 0 0 0 0 0 0 0 -0 -0 -0
0 0 0 0 0 -0 -0 0 0 0 0 0 0 0 0 0 0 0 0 0 0 0 0 0 0 0 0 0 0 0 0 0 0 0 0 0 0 0 0 0 -0 -0 -0
-0 0 0 0 -0 -0 -0 -0 -0 -0 0 0 0 0 0 0 0 0 0 0 0 0 0 0 0 0 0 0 0 0 0 0 0 0 0 0 0 0 -0 -0 -0 -0 -0
0 -0 0 -0 -0 -0 -0 -0 -0 -0 -0 -0 -0 0 -0 0 -0 0 -0 0 0 0 0 0 0 0 0 0 0 0 0 0 0 0 0 -0 -0 0 -0 -0 0 -0 -0
0 0 0 0 0 0 0 -0 -0 -0 -0 -0 0 -0 -0 -0 -0 -0 -0 -0 0 -0 -0 0 0 0 0 0 0 0 0 0 0 -0 -0 -0 -0 0 0 0 0 0 0
Wind_Speed_500mb
45 44 45 44 41 38 38 40 37 32 31 33 35 31 34 34 35 36 36 39 46 51 52 50 52 65 74 67 61 59 61 58 52 48 47 44 39 38 37 35 36 38 40
52 54 57 54 50 47 42 45 44 42 40 38 40 42 40 35 33 42 54 58 60 61 62 54 55 61 75 75 68 65 67 64 57 52 50 47 43 40 39 37 38 41 43
52 57 63 67 58 56 51 48 48 47 41 42 39 43 44 46 47 49 48 47 49 59 65 68 67 67 70 81 78 75 74 72 63 59 55 52 48 45 41 40 39 42 44
55 55 57 73 67 57 47 54 59 57 49 45 43 40 39 38 43 55 67 68 61 59 60 64 69 75 75 78 86 86 75 82 70 65 60 56 52 46 41 42 41 42 45
59 55 55 62 69 53 49 49 50 53 41 44 44 46 42 45 47 49 53 56 60 61 60 70 68 72 84 89 92 93 94 87 78 72 63 57 53 45 43 41 41 43 46
61 55 50 60 63 63 55 47 36 31 34 39 41 42 44 44 49 50 54 56 60 60 58 64 70 80 83 87 97 105 102 95 85 72 62 60 57 47 44 40 41 43 39
49 52 48 60 68 68 56 51 36 30 34 38 36 43 45 48 51 53 51 50 47 48 54 52 52 64 73 88 93 120 114 102 86 65 63 65 54 50 43 37 43 41 39
44 42 49 45 62 66 62 48 47 24 45 37 31 37 47 50 58 48 51 52 54 51 54 52 54 54 59 72 79 108 56 80 68 60 64 67 58 52 36 31 40 40 41
42 38 29 46 49 58 61 38 29 27 31 35 39 39 22 25 52 62 60 57 56 55 54 53 54 54 53 54 70 75 77 50 67 65 85 71 56 35 26 28 37 38 33
32 25 22 23 41 23 20 27 24 16 27 43 39 43 42 45 44 50 66 65 54 55 59 62 64 63 56 55 50 53 68 58 59 65 80 62 40 21 15 33 34 36 33
31 26 26 21 26 35 36 34 33 31 20 41 60 50 52 56 50 49 57 63 58 52 55 58 59 58 45 34 57 64 71 73 70 59 53 48 21 17 15 29 30 30 29
30 23 14 11 6 6 9 26 28 23 21 55 59 47 47 48 46 43 46 51 57 49 46 54 45 40 25 24 46 52 63 55 50 52 33 13 7 6 17 25 25 27 27
42 31 19 20 13 8 12 17 23 26 54 52 56 52 52 50 43 43 47 55 54 51 47 48 38 24 24 25 35 7 22 31 14 15 10 4 2 10 16 19 23 27 29
43 34 31 16 5 14 4 25 39 44 54 54 56 58 56 52 48 43 39 42 52 57 52 41 26 14 30 27 11 17 22 26 33 28 6 4 4 8 13 20 26 28 29
42 38 31 23 21 25 31 49 54 56 54 54 52 48 47 46 43 38 33 33 38 34 33 37 26 25 35 32 29 15 26 33 32 19 10 11 1 8 14 19 21 21 20
43 41 41 32 23 22 34 39 38 40 39 39 40 38 36 35 35 25 23 28 37 40 41 34 38 38 43 34 27 28 29 18 14 22 18 11 6 11 15 18 19 19 16
40 38 33 26 24 22 20 23 25 22 27 23 19 22 24 24 25 24 25 28 32 34 41 41 34 35 35 37 33 31 25 33 32 25 21 8 10 19 18 19 17 15 15
37 31 18 17 15 12 14 13 11 11 11 13 12 13 12 14 16 17 20 25 32 34 34 36 31 31 34 33 22 20 30 31 25 20 14 7 17 22 22 21 16 13 17
30 21 13 8 8 11 12 8 7 7 13 14 15 14 17 16 16 16 18 22 25 28 32 31 30 35 34 31 31 34 34 28 22 14 4 7 17 19 25 22 22 21 15
17 10 9 9 8 9 8 7 9 11 12 12 14 13 12 13 14 15 15 16 16 17 19 22 26 33 33 32 32 33 23 17 22 14 4 9 22 22 20 17 16 17 13
7 4 8 9 9 5 7 8 11 12 11 12 9 9 10 10 9 10 9 11 9 8 19 34 38 34 29 28 21 20 26 30 25 12 3 15 18 17 14 10 10 16 16
7 9 13 14 15 11 11 10 13 14 7 8 11 14 17 13 7 2 5 14 22 25 28 29 30 29 26 22 20 24 33 38 30 12 7 12 14 10 12 15 24 22 24
11 18 25 27 34 32 29 26 29 31 31 27 12 15 33 33 35 21 17 18 20 16 24 27 28 28 24 17 19 24 39 41 24 22 6 4 11 16 21 22 25 24 24
24 26 27 26 21 22 17 18 27 29 30 28 23 21 19 23 32 33 36 40 36 34 31 25 22 17 13 17 22 31 35 21 19 16 6 5 15 24 24 24 23 21 24
31 27 26 21 19 21 24 20 25 30 34 40 33 33 25 22 27 28 33 35 37 39 33 29 23 16 12 15 23 30 25 26 25 19 13 10 25 28 24 26 25 22 19
28 27 30 30 27 28 30 25 26 29 37 35 36 35 24 26 26 20 24 24 30 27 26 25 22 13 9 22 25 27 24 23 17 13 18 23 31 24 19 27 25 22 25
Wind_Direction_500mb
269 277 267 253 259 260 247 255 258 260 267 270 279 290 282 274 271 276 279 281 282 282 279 272 265 251 246 252 257 258 249 246 248 246 244 246 250 258 267 276 288 295 301
269 278 268 255 253 258 256 262 259 263 265 265 279 283 280 277 273 275 274 273 276 279 280 275 262 255 250 252 255 258 250 244 246 244 243 246 251 258 265 274 286 294 303
265 270 263 257 251 247 258 257 259 261 261 267 274 282 284 280 281 280 277 283 280 275 271 277 273 257 255 253 255 255 245 243 242 243 243 244 249 257 266 275 283 292 301
274 274 271 252 245 250 261 260 262 261 266 272 279 291 293 287 280 277 278 281 277 278 284 276 269 265 263 259 256 255 255 241 241 243 241 242 247 255 264 273 281 292 298
277 271 268 257 247 248 262 259 260 262 265 271 277 283 288 294 298 296 291 291 290 289 284 273 275 274 266 262 259 253 248 239 236 236 236 239 245 253 262 269 279 289 298
274 273 265 256 249 248 256 251 270 269 268 273 278 289 290 293 298 297 300 298 289 289 292 283 278 274 272 266 257 254 246 237 230 232 233 238 245 248 256 267 281 292 299
279 276 270 253 258 248 250 248 243 266 265 273 278 281 287 290 293 298 302 305 303 293 289 297 290 292 278 272 263 249 243 236 225 234 231 236 240 247 253 270 286 292 292
304 298 272 268 252 252 253 249 250 247 278 256 262 276 289 291 294 299 302 307 310 308 305 299 288 288 293 272 263 235 204 215 240 241 232 228 237 238 251 277 287 293 295
333 328 297 263 254 257 258 270 265 253 257 275 268 270 278 280 301 299 302 304 308 311 312 306 297 295 289 288 282 275 238 233 234 228 199 220 225 228 261 285 289 292 292
344 338 321 287 245 228 217 211 214 194 233 282 277 280 280 285 296 304 304 305 308 306 306 304 304 299 289 282 278 233 257 239 222 173 200 218 213 217 265 283 285 290 296
2 11 14 2 299 261 230 224 242 230 261 294 292 288 290 293 293 299 301 303 301 305 303 303 308 308 303 281 252 241 227 209 184 209 217 205 220 257 272 272 284 287 296
354 351 339 312 302 280 286 259 236 238 242 273 275 277 281 291 295 297 293 298 306 309 309 311 314 305 297 265 173 139 176 180 219 226 204 215 277 292 274 268 273 287 300
356 339 358 335 248 222 174 218 221 253 273 264 267 275 281 284 288 290 291 298 296 296 296 299 304 289 265 209 165 37 330 252 192 207 221 275 333 278 264 266 276 292 300
327 336 322 305 243 201 137 272 283 257 268 272 275 277 281 283 283 284 282 295 296 290 289 279 288 276 221 184 224 292 333 257 255 266 229 115 227 246 265 284 294 300 309
320 319 323 304 248 224 214 232 252 262 272 275 278 282 285 286 288 283 275 285 282 275 285 270 226 200 188 227 278 262 204 210 227 237 138 113 247 304 325 318 315 308 306
325 322 310 310 294 257 246 257 273 272 278 284 287 292 294 294 286 274 267 274 269 267 268 278 248 229 222 233 230 212 206 195 165 130 118 99 53 8 341 333 322 321 331
326 327 326 317 312 293 279 275 279 282 290 292 299 311 314 312 302 285 269 264 258 257 259 259 257 243 218 210 188 179 165 147 145 119 105 101 24 9 354 341 345 340 332
328 330 329 326 322 321 329 320 316 349 350 346 336 333 325 330 325 318 294 277 267 254 251 253 246 213 208 209 206 179 145 148 134 122 107 72 12 358 5 8 1 351 348
324 335 341 353 36 44 27 16 23 22 26 9 5 356 357 1 349 338 312 292 280 258 250 251 225 204 188 182 159 145 151 146 142 149 94 8 360 8 17 22 10 358 1
314 334 8 44 60 72 68 37 6 28 25 20 12 1 11 4 351 350 335 322 314 291 251 225 196 166 160 152 153 153 162 187 167 173 213 345 357 13 22 19 1 351 28
356 58 50 60 67 52 51 33 32 41 43 44 28 17 32 21 1 26 24 23 39 102 146 138 130 136 153 168 163 169 158 173 173 164 255 336 359 19 34 10 13 55 45
54 53 42 45 52 55 61 76 82 61 45 87 73 59 56 37 19 94 126 98 107 118 120 123 124 129 154 188 188 172 178 179 142 175 267 3 14 36 64 48 54 51 45
74 69 83 75 72 76 84 54 65 61 56 59 72 77 80 59 60 114 130 125 124 134 129 146 132 123 115 162 178 174 178 176 177 171 203 37 53 84 76 69 61 52 48
82 87 76 81 93 81 77 74 85 72 67 48 63 105 83 55 71 62 67 76 76 68 61 63 76 71 89 127 162 178 172 176 162 169 189 108 93 94 83 77 73 63 61
78 85 74 57 62 59 58 66 85 82 75 61 83 78 77 98 87 91 92 96 93 91 84 74 72 74 119 165 176 178 183 181 167 180 181 144 115 106 93 87 82 72 62
72 76 74 63 59 69 73 72 78 75 71 69 70 66 93 95 86 89 67 83 90 81 56 45 35 41 158 174 165 183 185 197 197 180 179 151 130 116 90 82 84 62 60
Wind_Speed_850mb
45 44 45 44 41 38 38 40 37 32 31 33 35 31 34 34 35 36 36 39 46 51 52 50 52 65 74 67 61 59 61 58 52 48 47 44 39 38 37 35 36 38 40
52 54 57 54 50 47 42 45 44 42 40 38 40 42 40 35 33 42 54 58 60 61 62 54 55 61 75 75 68 65 67 64 57 52 50 47 43 40 39 37 38 41 43
52 57 63 67 58 56 51 48 48 47 41 42 39 43 44 46 47 49 48 47 49 59 65 68 67 67 70 81 78 75 74 72 63 59 55 52 48 45 41 40 39 42 44
55 55 57 73 67 57 47 54 59 57 49 45 43 40 39 38 43 55 67 68 61 59 60 64 69 75 75 78 86 86 75 82 70 65 60 56 52 46 41 42 41 42 45
59 55 55 62 69 53 49 49 50 53 41 44 44 46 42 45 47 49 53 56 60 61 60 70 68 72 84 89 92 93 94 87 78 72 63 57 53 45 43 41 41 43 46
61 55 50 60 63 63 55 47 36 31 34 39 41 42 44 44 49 50 54 56 60 60 58 64 70 80 83 87 97 105 102 95 85 72 62 60 57 47 44 40 41 43 39
49 52 48 60 68 68 56 51 36 30 34 38 36 43 45 48 51 53 51 50 47 48 54 52 52 64 73 88 93 120 114 102 86 65 63 65 54 50 43 37 43 41 39
44 42 49 45 62 66 62 48 47 24 45 37 31 37 47 50 58 48 51 52 54 51 54 52 54 54 59 72 79 108 56 80 68 60 64 67 58 52 36 31 40 40 41
42 38 29 46 49 58 61 38 29 27 31 35 39 39 22 25 52 62 60 57 56 55 54 53 54 54 53 54 70 75 77 50 67 65 85 71 56 35 26 28 37 38 33
32 25 22 23 41 23 20 27 24 16 27 43 39 43 42 45 44 50 66 65 54 55 59 62 64 63 56 55 50 53 68 58 59 65 80 62 40 21 15 33 34 36 33
31 26 26 21 26 35 36 34 33 31 20 41 60 50 52 56 50 49 57 63 58 52 55 58 59 58 45 34 57 64 71 73 70 59 53 48 21 17 15 29 30 30 29
30 23 14 11 6 6 9 26 28 23 21 55 59 47 47 48 46 43 46 51 57 49 46 54 45 40 25 24 46 52 63 55 50 52 33 13 7 6 17 25 25 27 27
42 31 19 20 13 8 12 17 23 26 54 52 56 52 52 50 43 43 47 55 54 51 47 48 38 24 24 25 35 7 22 31 14 15 10 4 2 10 16 19 23 27 29
43 34 31 16 5 14 4 25 39 44 54 54 56 58 56 52 48 43 39 42 52 57 52 41 26 14 30 27 11 17 22 26 33 28 6 4 4 8 13 20 26 28 29
42 38 31 23 21 25 31 49 54 56 54 54 52 48 47 46 43 38 33 33 38 34 33 37 26 25 35 32 29 15 26 33 32 19 10 11 1 8 14 19 21 21 20
43 41 41 32 23 22 34 39 38 40 39 39 40 38 36 35 35 25 23 28 37 40 41 34 38 38 43 34 27 28 29 18 14 22 18 11 6 11 15 18 19 19 16
40 38 33 26 24 22 20 23 25 22 27 23 19 22 24 24 25 24 25 28 32 34 41 41 34 35 35 37 33 31 25 33 32 25 21 8 10 19 18 19 17 15 15
37 31 18 17 15 12 14 13 11 11 11 13 12 13 12 14 16 17 20 25 32 34 34 36 31 31 34 33 22 20 30 31 25 20 14 7 17 22 22 21 16 13 17
30 21 13 8 8 11 12 8 7 7 13 14 15 14 17 16 16 16 18 22 25 28 32 31 30 35 34 31 31 34 34 28 22 14 4 7 17 19 25 22 22 21 15
17 10 9 9 8 9 8 7 9 11 12 12 14 13 12 13 14 15 15 16 16 17 19 22 26 33 33 32 32 33 23 17 22 14 4 9 22 22 20 17 16 17 13
7 4 8 9 9 5 7 8 11 12 11 12 9 9 10 10 9 10 9 11 9 8 19 34 38 34 29 28 21 20 26 30 25 12 3 15 18 17 14 10 10 16 16
7 9 13 14 15 11 11 10 13 14 7 8 11 14 17 13 7 2 5 14 22 25 28 29 30 29 26 22 20 24 33 38 30 12 7 12 14 10 12 15 24 22 24
11 18 25 27 34 32 29 26 29 31 31 27 12 15 33 33 35 21 17 18 20 16 24 27 28 28 24 17 19 24 39 41 24 22 6 4 11 16 21 22 25 24 24
24 26 27 26 21 22 17 18 27 29 30 28 23 21 19 23 32 33 36 40 36 34 31 25 22 17 13 17 22 31 35 21 19 16 6 5 15 24 24 24 23 21 24
31 27 26 21 19 21 24 20 25 30 34 40 33 33 25 22 27 28 33 35 37 39 33 29 23 16 12 15 23 30 25 26 25 19 13 10 25 28 24 26 25 22 19
28 27 30 30 27 28 30 25 26 29 37 35 36 35 24 26 26 20 24 24 30 27 26 25 22 13 9 22 25 27 24 23 17 13 18 23 31 24 19 27 25 22 25
Wind_Direction_850mb
269 277 267 253 259 260 247 255 258 260 267 270 279 290 282 274 271 276 279 281 282 282 279 272 265 251 246 252 257 258 249 246 248 246 244 246 250 258 267 276 288 295 301
269 278 268 255 253 258 256 262 259 263 265 265 279 283 280 277 273 275 274 273 276 279 280 275 262 255 250 252 255 258 250 244 246 244 243 246 251 258 265 274 286 294 303
265 270 263 257 251 247 258 257 259 261 261 267 274 282 284 280 281 280 277 283 280 275 271 277 273 257 255 253 255 255 245 243 242 243 243 244 249 257 266 275 283 292 301
274 274 271 252 245 250 261 260 262 261 266 272 279 291 293 287 280 277 278 281 277 278 284 276 269 265 263 259 256 255 255 241 241 243 241 242 247 255 264 273 281 292 298
277 271 268 257 247 248 262 259 260 262 265 271 277 283 288 294 298 296 291 291 290 289 284 273 275 274 266 262 259 253 248 239 236 236 236 239 245 253 262 269 279 289 298
274 273 265 256 249 248 256 251 270 269 268 273 278 289 290 293 298 297 300 298 289 289 292 283 278 274 272 266 257 254 246 237 230 232 233 238 245 248 256 267 281 292 299
279 276 270 253 258 248 250 248 243 266 265 273 278 281 287 290 293 298 302 305 303 293 289 297 290 292 278 272 263 249 243 236 225 234 231 236 240 247 253 270 286 292 292
304 298 272 268 252 252 253 249 250 247 278 256 262 276 289 291 294 299 302 307 310 308 305 299 288 288 293 272 263 235 204 215 240 241 232 228 237 238 251 277 287 293 295
333 328 297 263 254 257 258 270 265 253 257 275 268 270 278 280 301 299 302 304 308 311 312 306 297 295 289 288 282 275 238 233 234 228 199 220 225 228 261 285 289 292 292
344 338 321 287 245 228 217 211 214 194 233 282 277 280 280 285 296 304 304 305 308 306 306 304 304 299 289 282 278 233 257 239 222 173 200 218 213 217 265 283 285 290 296
2 11 14 2 299 261 230 224 242 230 261 294 292 288 290 293 293 299 301 303 301 305 303 303 308 308 303 281 252 241 227 209 184 209 217 205 220 257 272 272 284 287 296
354 351 339 312 302 280 286 259 236 238 242 273 275 277 281 291 295 297 293 298 306 309 309 311 314 305 297 265 173 139 176 180 219 226 204 215 277 292 274 268 273 287 300
356 339 358 335 248 222 174 218 221 253 273 264 267 275 281 284 288 290 291 298 296 296 296 299 304 289 265 209 165 37 330 252 192 207 221 275 333 278 264 266 276 292 300
327 336 322 305 243 201 137 272 283 257 268 272 275 277 281 283 283 284 282 295 296 290 289 279 288 276 221 184 224 292 333 257 255 266 229 115 227 246 265 284 294 300 309
320 319 323 304 248 224 214 232 252 262 272 275 278 282 285 286 288 283 275 285 282 275 285 270 226 200 188 227 278 262 204 210 227 237 138 113 247 304 325 318 315 308 306
325 322 310 310 294 257 246 257 273 272 278 284 287 292 294 294 286 274 267 274 269 267 268 278 248 229 222 233 230 212 206 195 165 130 118 99 53 8 341 333 322 321 331
326 327 326 317 312 293 279 275 279 282 290 292 299 311 314 312 302 285 269 264 258 257 259 259 257 243 218 210 188 179 165 147 145 119 105 101 24 9 354 341 345 340 332
328 330 329 326 322 321 329 320 316 349 350 346 336 333 325 330 325 318 294 277 267 254 251 253 246 213 208 209 206 179 145 148 134 122 107 72 12 358 5 8 1 351 348
324 335 341 353 36 44 27 16 23 22 26 9 5 356 357 1 349 338 312 292 280 258 250 251 225 204 188 182 159 145 151 146 142 149 94 8 360 8 17 22 10 358 1
314 334 8 44 60 72 68 37 6 28 25 20 12 1 11 4 351 350 335 322 314 291 251 225 196 166 160 152 153 153 162 187 167 173 213 345 357 13 22 19 1 351 28
356 58 50 60 67 52 51 33 32 41 43 44 28 17 32 21 1 26 24 23 39 102 146 138 130 136 153 168 163 169 158 173 173 164 255 336 359 19 34 10 13 55 45
54 53 42 45 52 55 61 76 82 61 45 87 73 59 56 37 19 94 126 98 107 118 120 123 124 129 154 188 188 172 178 179 142 175 267 3 14 36 64 48 54 51 45
74 69 83 75 72 76 84 54 65 61 56 59 72 77 80 59 60 114 130 125 124 134 129 146 132 123 115 162 178 174 178 176 177 171 203 37 53 84 76 69 61 52 48
82 87 76 81 93 81 77 74 85 72 67 48 63 105 83 55 71 62 67 76 76 68 61 63 76 71 89 127 162 178 172 176 162 169 189 108 93 94 83 77 73 63 61
78 85 74 57 62 59 58 66 85 82 75 61 83 78 77 98 87 91 92 96 93 91 84 74 72 74 119 165 176 178 183 181 167 180 181 144 115 106 93 87 82 72 62
72 76 74 63 59 69 73 72 78 75 71 69 70 66 93 95 86 89 67 83 90 81 56 45 35 41 158 174 165 183 185 197 197 180 179 151 130 116 90 82 84 62 60